Indian Mountain, AK

10:45 PM AKDT on May 28, 2017 (GMT -0800)
Indian Mountain

Weather History for PAIM - October, 2012

Change the Weather History Date:

Wednesday, October 10, 2012

  Actual Average Record
Temperature  
Mean Temperature 27 °F -  
Max Temperature 30 °F 26 °F 45 °F (2006)
Min Temperature 24 °F 17 °F 3 °F (1996)
Degree Days  
Heating Degree Days 38    
Moisture  
Dew Point 11 °F    
Average Humidity 50    
Maximum Humidity 55    
Minimum Humidity 43    
Precipitation  
Precipitation 0.00 in - - ()
Sea Level Pressure  
Sea Level Pressure 30.48 in    
Wind  
Wind Speed 10 mph (ENE)    
Max Wind Speed 18 mph    
Max Gust Speed 30 mph    
Visibility 10 miles    
Events      
Averages and records for this station are not official NWS values.
T = Trace of Precipitation, MM = Missing Value Source: NWS Daily Summary

Daily Weather History Graph

Daily Weather History Graph

Search for Another Location

Airport or City:

Trip Planner

Search our weather history database for the weather conditions in past years. The results will help you decide how hot, cold, wet, or windy it might be!

Date:

Astronomy

Oct. 10, 2012 Rise Set
Actual Time 8:56 AM AKDT 7:04 PM AKDT
Civil Twilight 8:05 AM AKDT 7:56 PM AKDT
Nautical Twilight 7:05 AM AKDT 8:55 PM AKDT
Astronomical Twilight 6:03 AM AKDT 9:56 PM AKDT
Moon 1:47 AM AKDT (10/10) 5:50 PM AKDT (10/10)
Length of Visible Light 11h 51m
Length of Day
10h 07m
Waning Crescent, 26% of the Moon is Illuminated
Oct 10
Waning Crescent
Oct 15
New
Oct 21
First Quarter
Oct 29
Full
Nov 6
Last Quarter

Hourly Weather History & Observations

Time (AKDT) Temp. Windchill Dew Point Humidity Pressure Visibility Wind Dir Wind Speed Gust Speed Precip Events Conditions
12:55 AM 28.9 °F 19.2 °F 13.1 °F 52% 30.52 in 10.0 mi NNE 11.5 mph 20.7 mph N/A   Partly Cloudy
1:55 AM 28.6 °F 18.2 °F 13.3 °F 53% 30.51 in 10.0 mi North 12.7 mph 19.6 mph N/A   Partly Cloudy
2:55 AM 28.0 °F 17.0 °F 13.6 °F 55% 30.51 in 10.0 mi North 13.8 mph 23.0 mph N/A   Partly Cloudy
3:55 AM 26.4 °F 16.0 °F 11.3 °F 53% 30.52 in 10.0 mi North 11.5 mph 19.6 mph N/A   Clear
4:55 AM 26.4 °F 15.5 °F 11.1 °F 53% 30.51 in 10.0 mi North 12.7 mph 20.7 mph N/A   Clear
5:55 AM 26.1 °F 12.7 °F 10.9 °F 53% 30.50 in 10.0 mi NNE 18.4 mph 29.9 mph N/A   Clear
6:55 AM 26.4 °F 15.0 °F 11.8 °F 54% 30.50 in 10.0 mi North 13.8 mph 20.7 mph N/A   Clear
8:08 AM 26.6 °F 17.5 °F 10.4 °F 51% 30.51 in 10.0 mi NNE 9.2 mph 18.4 mph N/A   Clear
8:55 AM 24.8 °F 16.1 °F 10.4 °F 54% 30.51 in 10.0 mi ENE 8.1 mph 17.3 mph N/A   Clear
9:55 AM 26.6 °F - 10.4 °F 51% 30.50 in 10.0 mi Variable 2.3 mph - N/A   Clear
10:55 AM 26.6 °F 20.0 °F 10.4 °F 51% 30.51 in 10.0 mi Variable 5.8 mph - N/A   Clear
11:55 AM 28.4 °F 20.4 °F 10.4 °F 47% 30.50 in 10.0 mi ENE 8.1 mph 19.6 mph N/A   Clear
12:55 PM 28.4 °F 20.4 °F 10.4 °F 47% 30.51 in 10.0 mi SE 8.1 mph - N/A   Clear
1:55 PM 30.2 °F 24.3 °F 10.4 °F 44% 30.51 in 10.0 mi East 5.8 mph 12.7 mph N/A   Clear
2:55 PM 30.2 °F 22.6 °F 10.4 °F 44% 30.50 in 10.0 mi East 8.1 mph 16.1 mph N/A   Clear
3:55 PM 29.8 °F 22.2 °F 9.7 °F 43% 30.48 in 10.0 mi ESE 8.1 mph - N/A   Clear
4:55 PM 29.3 °F 21.5 °F 10.4 °F 45% 30.47 in 10.0 mi East 8.1 mph 15.0 mph N/A   Clear
5:55 PM 28.6 °F 21.5 °F 10.2 °F 46% 30.46 in 10.0 mi East 6.9 mph 16.1 mph N/A   Clear
6:55 PM 28.8 °F 23.7 °F 9.7 °F 45% 30.45 in 10.0 mi Variable 4.6 mph - N/A   Clear
7:55 PM 28.4 °F 19.7 °F 10.4 °F 47% 30.35 in 10.0 mi ENE 9.2 mph 16.1 mph N/A   Scattered Clouds
8:55 PM 27.0 °F 23.0 °F 11.1 °F 51% 30.44 in 10.0 mi Variable 3.5 mph - N/A   Scattered Clouds
9:55 PM 26.2 °F - 10.9 °F 52% 30.42 in 10.0 mi Variable 2.3 mph - N/A   Partly Cloudy
10:55 PM 26.6 °F 22.6 °F 10.4 °F 51% 30.40 in 10.0 mi Variable 3.5 mph - N/A   Scattered Clouds
11:55 PM 26.4 °F 20.9 °F 9.3 °F 49% 30.38 in 10.0 mi SE 4.6 mph - N/A   Partly Cloudy